Weather History for KCNY - September, 2013

Change the Weather History Date:

Friday, September 6, 2013

  Actual Average Record
Temperature  
Mean Temperature 82 °F 71 °F  
Max Temperature 96 °F 86 °F 108 °F (1976)
Min Temperature 67 °F 56 °F 43 °F (1936)
Degree Days  
Heating Degree Days 0 0  
Month to date heating degree days 0 0  
Since 1 July heating degree days 0 1  
Cooling Degree Days 17 6  
Month to date cooling degree days 96 42  
Year to date cooling degree days 1563 1208  
Growing Degree Days 30 (Base 50)    
Moisture  
Dew Point 42 °F    
Average Humidity 31    
Maximum Humidity 47    
Minimum Humidity 14    
Precipitation  
Precipitation 0.00 in 0.03 in 0.92 in (1939)
Month to date precipitation T 0.17  
Year to date precipitation 3.90 5.55  
Sea Level Pressure  
Sea Level Pressure 29.90 in    
Wind  
Wind Speed 4 mph (South)    
Max Wind Speed 13 mph    
Max Gust Speed 17 mph    
Visibility 10 miles    
Events      
T = Trace of Precipitation, MM = Missing Value Source: NWS Daily Summary

Daily Weather History Graph

Daily Weather History Graph

Search for Another Location

Airport or City:

Trip Planner

Search our weather history database for the weather conditions in past years. The results will help you decide how hot, cold, wet, or windy it might be!

Date:

Astronomy

Sep. 06, 2013 Rise Set
Actual Time 6:52 AM MDT 7:41 PM MDT
Civil Twilight 6:25 AM MDT 8:07 PM MDT
Nautical Twilight 5:53 AM MDT 8:39 PM MDT
Astronomical Twilight 5:20 AM MDT 9:12 PM MDT
Moon 8:07 AM MDT (9/6) 8:08 PM MDT (9/6)
Length of Visible Light 13h 42m
Length of Day
12h 48m
New Moon, 2% of the Moon is Illuminated
Sep 6
New Moon
Sep 12
First Quarter
Sep 19
Full
Sep 26
Last Quarter
Oct 4
New

Hourly Weather History & Observations

Time (MDT) Temp. Dew Point Humidity Pressure Visibility Wind Dir Wind Speed Gust Speed Precip Events Conditions
12:53 AM 75.0 °F 45.0 °F 34% 29.91 in 10.0 mi Calm Calm - N/A   Clear
1:53 AM 72.0 °F 44.1 °F 37% 29.92 in 10.0 mi Calm Calm - N/A   Clear
2:53 AM 69.1 °F 44.1 °F 40% 29.93 in 10.0 mi WSW 3.5 mph - N/A   Clear
3:53 AM 68.0 °F 43.0 °F 40% 29.93 in 10.0 mi Calm Calm - N/A   Clear
4:53 AM 72.0 °F 45.0 °F 38% 29.93 in 10.0 mi SE 3.5 mph - N/A   Clear
5:53 AM 70.0 °F 46.0 °F 42% 29.94 in 10.0 mi Calm Calm - N/A   Clear
6:53 AM 69.1 °F 48.0 °F 47% 29.96 in 10.0 mi Calm Calm - N/A   Clear
7:53 AM 73.9 °F 50.0 °F 43% 29.97 in 10.0 mi SE 5.8 mph - N/A   Clear
8:53 AM 80.1 °F 51.1 °F 36% 29.98 in 10.0 mi East 9.2 mph - N/A   Clear
9:53 AM 82.9 °F 50.0 °F 32% 29.99 in 10.0 mi ESE 9.2 mph - N/A   Clear
10:53 AM 86.0 °F 46.0 °F 25% 29.97 in 10.0 mi SE 6.9 mph - N/A   Clear
11:53 AM 89.1 °F 43.0 °F 20% 29.96 in 10.0 mi ESE 8.1 mph - N/A   Clear
12:53 PM 93.0 °F 43.0 °F 18% 29.93 in 10.0 mi Variable 5.8 mph - N/A   Clear
1:53 PM 93.9 °F 39.9 °F 15% 29.90 in 10.0 mi West 8.1 mph - N/A   Clear
2:53 PM 93.0 °F 39.9 °F 16% 29.88 in 10.0 mi Variable 4.6 mph - N/A   Clear
3:53 PM 93.9 °F 39.0 °F 15% 29.86 in 10.0 mi SE 4.6 mph - N/A   Clear
4:53 PM 93.9 °F 37.9 °F 14% 29.83 in 10.0 mi Variable 5.8 mph - N/A   Clear
5:53 PM 91.9 °F 37.0 °F 15% 29.81 in 10.0 mi SSW 4.6 mph - N/A   Clear
6:53 PM 93.0 °F 37.0 °F 14% 29.79 in 10.0 mi SW 3.5 mph - N/A   Clear
7:53 PM 87.1 °F 37.0 °F 17% 29.80 in 10.0 mi Calm Calm - N/A   Clear
8:53 PM 80.1 °F 37.9 °F 22% 29.82 in 10.0 mi WSW 4.6 mph - N/A   Clear
9:53 PM 82.0 °F 37.9 °F 21% 29.83 in 10.0 mi WNW 9.2 mph - N/A   Clear
10:53 PM 77.0 °F 37.9 °F 24% 29.84 in 10.0 mi Calm Calm - N/A   Clear
11:53 PM 75.0 °F 39.0 °F 27% 29.85 in 10.0 mi Calm Calm - N/A   Clear